Cecil Field, FL

8:27 PM EDT on October 21, 2017 (GMT -0400)
Cecil

Weather History for KVQQ - November, 2012

Change the Weather History Date:

Friday, November 2, 2012

  Actual Average (KNIP) Record (KNIP)
Temperature  
Mean Temperature 57 °F -  
Max Temperature 77 °F 74 °F 91 °F (2015)
Min Temperature 37 °F 58 °F 43 °F (2014)
Degree Days  
Heating Degree Days 8    
Growing Degree Days 7 (Base 50)    
Moisture  
Dew Point 43 °F    
Average Humidity 81    
Maximum Humidity 100    
Minimum Humidity 29    
Precipitation  
Precipitation 0.00 in - - ()
Sea Level Pressure  
Sea Level Pressure 30.03 in    
Wind  
Wind Speed 2 mph (SW)    
Max Wind Speed 17 mph    
Max Gust Speed -    
Visibility 10 miles    
Events      
Averages and records for this station are not official NWS values.
T = Trace of Precipitation, MM = Missing Value Source: NWS Daily Summary

Daily Weather History Graph

Daily Weather History Graph

Search for Another Location

Airport or City:

Trip Planner

Search our weather history database for the weather conditions in past years. The results will help you decide how hot, cold, wet, or windy it might be!

Date:

Astronomy

Nov. 02, 2012 Rise Set
Actual Time 7:42 AM EDT 6:38 PM EDT
Civil Twilight 7:17 AM EDT 7:03 PM EDT
Nautical Twilight 6:49 AM EDT 7:32 PM EDT
Astronomical Twilight 6:21 AM EDT 8:00 PM EDT
Moon 9:33 PM EDT (11/2) 10:53 AM EDT (11/2)
Length of Visible Light 11h 45m
Length of Day
10h 56m
Waning Gibbous, 87% of the Moon is Illuminated
Nov 2
Waning Gibbous
Nov 6
Last Quarter
Nov 13
New
Nov 20
First Quarter
Nov 28
Full

Hourly Weather History & Observations

Time (EDT) Temp. Dew Point Humidity Pressure Visibility Wind Dir Wind Speed Gust Speed Precip Events Conditions
12:15 AM 41.0 °F 41.0 °F 100% 30.02 in 10.0 mi Calm Calm - N/A   Clear
12:35 AM 41.0 °F 41.0 °F 100% 30.02 in 10.0 mi Calm Calm - N/A   Clear
12:55 AM 41.0 °F 41.0 °F 100% 30.02 in 10.0 mi Calm Calm - N/A   Clear
1:15 AM 42.8 °F 41.0 °F 93% 30.02 in 10.0 mi Calm Calm - N/A   Clear
1:35 AM 41.0 °F 41.0 °F 100% 30.02 in 10.0 mi Calm Calm - N/A   Clear
1:55 AM 41.0 °F 41.0 °F 100% 30.02 in 10.0 mi Calm Calm - N/A   Clear
2:15 AM 41.0 °F 39.2 °F 93% 30.03 in 10.0 mi Calm Calm - N/A   Clear
2:35 AM 41.0 °F 41.0 °F 100% 30.03 in 10.0 mi Calm Calm - N/A   Clear
2:55 AM 41.0 °F 41.0 °F 100% 30.03 in 10.0 mi Calm Calm - N/A   Clear
3:15 AM 41.0 °F 41.0 °F 100% 30.03 in 10.0 mi Calm Calm - N/A   Clear
3:35 AM 41.0 °F 41.0 °F 100% 30.03 in 10.0 mi Calm Calm - N/A   Clear
3:55 AM 41.0 °F 41.0 °F 100% 30.03 in 10.0 mi Calm Calm - N/A   Clear
4:15 AM 39.2 °F 39.2 °F 100% 30.03 in 10.0 mi Calm Calm - N/A   Clear
4:35 AM 39.2 °F 39.2 °F 100% 30.03 in 10.0 mi Calm Calm - N/A   Clear
4:55 AM 39.2 °F 39.2 °F 100% 30.03 in 10.0 mi Calm Calm - N/A   Clear
5:15 AM 39.2 °F 39.2 °F 100% 30.03 in 10.0 mi Calm Calm - N/A   Clear
5:35 AM 37.4 °F 37.4 °F 100% 30.03 in 10.0 mi Calm Calm - N/A   Clear
5:55 AM 37.4 °F 37.4 °F 100% 30.04 in 9.0 mi Calm Calm - N/A   Clear
6:15 AM 37.4 °F 37.4 °F 100% 30.04 in 8.0 mi Calm Calm - N/A   Clear
6:50 AM 37.4 °F 37.4 °F 100% 30.05 in 10.0 mi Calm Calm - N/A   Clear
8:50 AM 42.8 °F 42.8 °F 100% 30.08 in 10.0 mi Calm Calm - N/A   Clear
9:50 AM 55.4 °F 44.6 °F 67% 30.10 in 10.0 mi Calm Calm - N/A   Clear
11:50 AM 68.0 °F 37.4 °F 33% 30.10 in 10.0 mi Calm Calm - N/A   Clear
12:50 PM 73.4 °F 39.2 °F 29% 30.06 in 10.0 mi Variable 3.5 mph - N/A   Clear
1:50 PM 75.2 °F 42.8 °F 31% 30.04 in 10.0 mi West 11.5 mph - N/A   Clear
2:50 PM 75.2 °F 44.6 °F 34% 30.01 in 10.0 mi West 5.8 mph - N/A   Clear
3:50 PM 77.0 °F 44.6 °F 32% 29.99 in 10.0 mi West 17.3 mph - N/A   Clear
4:50 PM 75.2 °F 44.6 °F 34% 29.98 in 10.0 mi West 12.7 mph - N/A   Clear
6:50 PM 64.4 °F 51.8 °F 64% 29.99 in 10.0 mi Variable 3.5 mph - N/A   Clear
7:50 PM 55.4 °F 50.0 °F 82% 30.00 in 10.0 mi Calm Calm - N/A   Clear
8:55 PM 59.0 °F 48.2 °F 67% 30.02 in 10.0 mi SW 6.9 mph - N/A   Clear
9:15 PM 59.0 °F 48.2 °F 67% 30.03 in 10.0 mi SW 5.8 mph - N/A   Clear
9:35 PM 59.0 °F 48.2 °F 67% 30.03 in 10.0 mi SW 5.8 mph - N/A   Clear
9:55 PM 59.0 °F 48.2 °F 67% 30.04 in 10.0 mi SW 5.8 mph - N/A   Clear
10:15 PM 59.0 °F 50.0 °F 72% 30.04 in 10.0 mi SW 5.8 mph - N/A   Clear
10:55 PM 59.0 °F 50.0 °F 72% 30.04 in 10.0 mi SSW 8.1 mph - N/A   Clear
11:15 PM 59.0 °F 51.8 °F 77% 30.04 in 10.0 mi SSW 6.9 mph - N/A   Clear
11:35 PM 59.0 °F 51.8 °F 77% 30.04 in 10.0 mi SSW 6.9 mph - N/A   Clear
11:55 PM 57.2 °F 51.8 °F 82% 30.05 in 10.0 mi SSW 6.9 mph - N/A   Clear